Regional Weather Roundup
Issued by NWS

Home | Current Version | Previous Version | Graphics & Text | Print | Product List | Glossary On
Versions: 1 2 3 4 5 6 7 8 9 10 11 12 13 14 15 16 17 18 19 20 21 22 23 24 25 26 27 28 29 30 31 32 33 34 35 36 37 38 39 40 41 42 43 44 45 46 47 48 49 50
760
ASUS43 KDMX 290508
RWRIA

WEATHER ROUNDUP FOR IOWA
NATIONAL WEATHER SERVICE DES MOINES IA
1200 AM CDT FRI APR 29 2016

NOTE: "FAIR" INDICATES FEW OR NO CLOUDS BELOW 12,000 FEET WITH NO
SIGNIFICANT WEATHER AND/OR OBSTRUCTIONS TO VISIBILITY.

* - THESE STATIONS ARE NOT NWS STATIONS...THUS NOT UNDER NWS
QUALITY CONTROL.  THEY ALSO DO NOT REPORT WEATHER SUCH
AS PRECIPITATION OR FOG.

IAZ001>003-012>014-020>022-031>034-043>046-290600-
   NORTHWEST IOWA

CITY           SKY/WX    TMP DP  RH WIND       PRES   REMARKS
CARROLL *      CLOUDY    43  43 100 N10       30.09S FOG
CHEROKEE *     CLOUDY    41  39  93 N6        30.11R
DENISON *      CLOUDY    43  41  93 NE7       30.08S FOG
LE MARS *      CLOUDY    41  39  93 NE7       30.13R
ORANGE CITY *  CLOUDY    39  37  93 NE6       30.11S WCI  35
SHELDON *      CLOUDY    39  39 100 NE7       30.09S WCI  34
SIOUX CITY     CLOUDY    44  38  79 NE5       30.13R
SPENCER        CLOUDY    40  37  89 NE8       30.10S WCI  34
STORM LAKE *   CLOUDY    41  39  93 N6        30.10S
$$

IAZ055>058-069>071-079>083-090>094-290600-
   SOUTHWEST IOWA

CITY           SKY/WX    TMP DP  RH WIND       PRES   REMARKS
ATLANTIC *     CLOUDY    45  43  93 NW8       30.10R
AUDUBON *      CLOUDY    45  41  87 N5        30.09S
CLARINDA *       N/A    N/A N/A N/A MISG        N/A
COUNCIL BLFS * CLOUDY    45  39  81 NW8       30.11F
CRESTON *      CLOUDY    46  43  87 NW6       30.09S
HARLAN  *      CLOUDY    45  43  93 NW6       30.14S FOG
LAMONI         CLOUDY    48  44  86 NW8       30.07R
RED OAK *      CLOUDY    46  41  81 N7        30.10F
SHENANDOAH *   CLOUDY    48  43  81 N7        30.12R
$$

IAZ047>049-059>061-072>074-084-290600-
   CENTRAL IOWA

CITY           SKY/WX    TMP DP  RH WIND       PRES   REMARKS
AMES           CLOUDY    47  44  90 N9        30.07S
ANKENY *       CLOUDY    48  46  93 NW7       30.07R
BOONE *        CLOUDY    45  45 100 N9        30.07S
CHARITON *     CLOUDY    48  45  87 NW10      30.06R
DES MOINES     DRIZZLE   49  45  86 NW10      30.07S
GRINNELL*      CLOUDY    46  45  93 NW5       30.06S
KNOXVILLE *    LGT RAIN  50  48  93 NW7       30.04S
MARSHALLTOWN   CLOUDY    46  45  96 N7        30.06R FOG
NEWTON *       CLOUDY    48  48 100 N7        30.05S
PELLA *        CLOUDY    49  48  95 NW5       30.06S
$$

IAZ004>006-015-016-023>025-035-036-290600-
   NORTH CENTRAL IOWA

CITY           SKY/WX    TMP DP  RH WIND       PRES   REMARKS
ALGONA *       CLOUDY    41  39  93 N7        30.09S
CLARION *      CLOUDY    43  43 100 N8        30.09R
ESTHERVILLE    CLOUDY    39  38  96 N6        30.10R WCI  35
FORT DODGE *   CLOUDY    43  37  81 N6        30.10R
MASON CITY     CLOUDY    41  39  93 NE6       30.09R
FOREST CITY *  CLOUDY    39  37  93 NE6       30.08S WCI  35
WEBSTER CITY * CLOUDY    45  43  93 N8        30.07R
IOWA FALLS *   CLOUDY    45  43  93 N5        30.08R FOG
$$

IAZ007>011-017>019-026>030-037>042-050>054-066-290600-
   NORTHEAST IOWA

CITY           SKY/WX    TMP DP  RH WIND       PRES   REMARKS
CEDAR RAPIDS   CLOUDY    46  46 100 N6        30.04R FOG
CHARLES CITY * CLOUDY    41  41 100 NE8       30.08R FOG
CLINTON *      CLOUDY    45  43  93 NE9       30.04R FOG
DECORAH *      CLOUDY    39  39 100 NE7       30.06S WCI  34
DUBUQUE        CLOUDY    40  40 100 NE9       30.04R FOG     WCI  34
MONTICELLO *   CLOUDY    43  41  93 NE6       30.04R
OELWEIN *      CLOUDY    43  43 100 N7        30.07R
WATERLOO       CLOUDY    44  40  85 N7        30.06R
$$

IAZ064-065-067-068-078-290600-
   EAST CENTRAL IOWA

CITY           SKY/WX    TMP DP  RH WIND       PRES   REMARKS
DAVENPORT      CLOUDY    47  46  97 NE10      30.02R FOG
IOWA CITY      CLOUDY    48  46  93 N8        30.04R
MT. PLEASANT * CLOUDY    55  50  82 W7        30.03R
MUSCATINE *    CLOUDY    52  50  93 N8        30.02S
QUAD CITIES    CLOUDY    52  49  89 CALM      30.01R FOG
$$

IAZ062-063-075>077-085>089-095>099-290600-
   SOUTHEAST IOWA

CITY           SKY/WX    TMP DP  RH WIND       PRES   REMARKS
BURLINGTON     CLOUDY    53  48  83 W8        30.01S
FAIRFIELD *    CLOUDY    52  48  87 W9        30.03R
FORT MADISON * PTCLDY    52  46  82 W7        30.03S
KEOKUK *       PTCLDY    52  46  82 NW7       30.02R
OSKALOOSA *    HVY RAIN  50  48  93 NW8       30.04S
OTTUMWA        CLOUDY    50  49  96 W6        30.03S FOG
WASHINGTON *   CLOUDY    50  50 100 N5        30.04R FOG
$$

ABBREVIATIONS USED IN REMARKS
   TC - TEMPERATURES IN CELSIUS
  WCI - WIND CHILL INDEX
   HX - HEAT INDEX
  VSB - VISIBILITY
$$





USA.gov is the U.S. government's official web portal to all federal, state and local government web resources and services.